User: anonymous   Login
Location: Asni�res
(49.1337°N, 2.3555°E)
Time: 18:34:41
(UTC+00:00)
Language:

Cosmos 2369 - Orbit

View from above orbital plane
View from above orbital plane
View from above satellite
View from above satellite

Ground track
Ground track

The orbit data is extracted from the following two-line orbital elements,

1 26069U 00006A   22017.13070158 -.00000213  00000-0 -87607-4 0  9996
2 26069  70.9969  90.1029 0012961 225.2921 134.7146 14.13464202132782
Epoch (UTC): 17 January 2022 03:08:12
Eccentricity: 0.0012961
inclination: 70.9969°
perigee height: 838 km
apogee height: 857 km
right ascension of ascending node: 90.1029°
argument of perigee: 225.2921°
revolutions per day: 14.13464202
mean anomaly at epoch: 134.7146°
orbit number at epoch: 13278

The dashed part of the orbit path shows where the satellite is in the earth's shadow,  

DLR